Simultaneous Nadir Overpasses (SNOs) Predictions

Prediction of SNOs between LANDSAT-8 and NPP Satellite Orbit:

Table of predicted SNOs for the next 14.0 days since TLE Epoch: 10/18/2014
Index Date (LANDSAT-8) Time (LANDSAT-8) Lat,Lon (LANDSAT-8) SZA (LANDSAT-8 ) Date (NPP) Time (NPP) Lat,Lon (NPP) SZA (NPP ) Distance(km) Time Diff (sec)
1 10/18/2014 08:55:50 -70.88,-136.38 99.58 10/18/2014 08:54:49 -70.90,-136.39 99.57 1.87 61
2 10/18/2014 09:45:17 70.78, 31.12 80.33 10/18/2014 09:45:33 70.79, 31.10 80.34 0.76 16
3 10/18/2014 10:34:56 -70.18,-162.15 100.27 10/18/2014 10:36:05 -70.18,-160.61 100.25 57.93 69
4 10/21/2014 01:12:19 -70.87, -20.51 98.63 10/21/2014 01:11:38 -70.85, -20.53 98.65 2.23 41
5 10/21/2014 02:01:46 70.77, 146.98 81.29 10/21/2014 02:02:22 70.75, 146.96 81.27 2.79 36
6 10/23/2014 16:39:06 71.59, -71.11 83.05 10/23/2014 16:37:59 71.63, -73.41 83.07 80.93 67
7 10/23/2014 17:28:48 -70.83, 95.31 97.73 10/23/2014 17:28:27 -70.81, 95.33 97.74 2.33 21
8 10/23/2014 18:18:15 70.73, -97.21 82.19 10/23/2014 18:19:11 70.71, -97.19 82.17 1.96 56
9 10/26/2014 08:55:45 70.92, 43.69 83.28 10/26/2014 08:54:34 70.92, 43.62 83.29 2.92 71
10 10/26/2014 09:45:15 -70.81,-148.84 96.82 10/26/2014 09:45:16 -70.82,-148.90 96.81 2.73 1
11 10/26/2014 10:34:45 70.54, 18.40 82.92 10/26/2014 10:35:57 70.57, 18.82 82.96 16.10 72
12 10/29/2014 01:12:13 70.86, 159.50 84.13 10/29/2014 01:11:23 70.89, 159.46 84.16 3.21 50
13 10/29/2014 02:01:43 -70.75, -33.04 95.97 10/29/2014 02:02:04 -70.73, -32.97 95.99 3.41 21
14 10/31/2014 17:28:40 70.83, -84.66 84.97 10/31/2014 17:28:11 70.81, -84.62 84.95 3.11 29
15 10/31/2014 18:18:10 -70.72, 82.80 95.13 10/31/2014 18:18:54 -70.75, 82.79 95.10 3.37 44




NCC Satellite Simultaneous Nadir Overpasses (SNOs) Prediction Service
